sat.trackr.live / text

‹ back to catalog

STARLINK-3389

NORAD 51124 · 2022-005W

PAYLOAD ACTIVE UNKNOWN

§ Identity

Operator
Country
US
Launch date
2022-01-19
Launch site
AFETR
Launch vehicle
Mass (kg)
RCS (m²)

Purposes: comms

External: N2YO · Heavens-Above · Gunter

§ Orbital elements

Epoch: 2026-09-20T04:17:30.734016Z

Period
93.85 min
Inclination
53.1599°
Eccentricity
0.0000661
Mean motion
15.34386079 rev/d
Perigee alt
462.3 km
Apogee alt
463.2 km
Semi-major
6,840.9 km
B*
7.3236e-7
RAAN
139.0973°
Arg perigee
84.6652°
Mean anomaly
275.4426°
Rev number
25,819

§ Raw data

STARLINK-33891 51124U 22005W   26263.17882794 -.00000351  00000+0  73236-6 0  99932 51124  53.1599 139.0973 0000661  84.6652 275.4426 15.34386079258194

JSON: /api/v1/satellites/51124 · /tle

For live sub-satellite position, see the globe view (requires WebGL).

§ Visibility from observer

Set your observer location to see the next 7 days of passes ≥ 10°. The values pass through the URL so the page stays shareable.

No JS? Fill the form by hand. The geolocation button needs JavaScript.